Location: Red Deer
(52.2681°N, 113.8112°W)
Time: 16:47:34
(UTC-06:00)

Envisat - Pass Details

Date: 29 April 2024
Orbit: 762 x 764 km, 98.3° (Epoch: 27 May)

Event Time Altitude Azimuth Distance (km) Brightness Sun altitude
Rises 03:57:03 0° 23° (NNE) 3,240 7.9 -16.1°
Reaches altitude 10° 03:59:49 10° 38° (NE) 2,308 6.9 -15.9°
Maximum altitude 04:03:52 24° 91° (E) 1,562 5.0 -15.5°
Drops below altitude 10° 04:07:54 10° 144° (SE) 2,293 5.3 -15.1°
Sets 04:10:37 0° 158° (SSE) 3,214 5.9 -14.8°
